Pecos, TX

11:43 PM CDT on March 23, 2017 (GMT -0500)
Pecos Municipal

Weather History for KPEQ - November, 2010

Change the Weather History Date:

Monday, November 29, 2010

  Actual Average Record
Temperature  
Mean Temperature 54 °F -  
Max Temperature 61 °F 63 °F 85 °F (1949)
Min Temperature 46 °F 30 °F 11 °F (1976)
Degree Days  
Heating Degree Days 12    
Growing Degree Days 4 (Base 50)    
Moisture  
Dew Point 19 °F    
Average Humidity 28    
Maximum Humidity 49    
Minimum Humidity 13    
Precipitation  
Precipitation 0.00 in - - ()
Sea Level Pressure  
Sea Level Pressure 29.88 in    
Wind  
Wind Speed 16 mph (West)    
Max Wind Speed 33 mph    
Max Gust Speed 41 mph    
Visibility 10 miles    
Events      
Averages and records for this station are not official NWS values.
T = Trace of Precipitation, MM = Missing Value Source: NWS Daily Summary

Daily Weather History Graph

Daily Weather History Graph

Search for Another Location

Airport or City:

Trip Planner

Search our weather history database for the weather conditions in past years. The results will help you decide how hot, cold, wet, or windy it might be!

Date:

Astronomy

Nov. 29, 2010 Rise Set
Actual Time 7:33 AM CST 5:50 PM CST
Civil Twilight 7:07 AM CST 6:17 PM CST
Nautical Twilight 6:37 AM CST 6:47 PM CST
Astronomical Twilight 6:08 AM CST 7:16 PM CST
Moon 1:05 AM CST (11/29) 1:32 PM CST (11/29)
Length of Visible Light 11h 10m
Length of Day
10h 17m
Last Quarter, 40% of the Moon is Illuminated
Nov 29
Last Quarter
Dec 5
New
Dec 13
First Quarter
Dec 21
Full
Dec 27
Last Quarter

Hourly Weather History & Observations

Time (CST) Temp. Windchill Dew Point Humidity Pressure Visibility Wind Dir Wind Speed Gust Speed Precip Events Conditions
12:05 AM 55.2 °F - 13.5 °F 19% 29.70 in 10.0 mi NW 15.0 mph - N/A   Clear
12:25 AM 55.8 °F - 16.5 °F 21% 29.72 in 10.0 mi WNW 13.8 mph - N/A   Clear
12:45 AM 56.7 °F - 18.1 °F 22% 29.72 in 10.0 mi NW 10.4 mph - N/A   Clear
1:05 AM 56.3 °F - 18.5 °F 23% 29.73 in 10.0 mi WNW 13.8 mph - N/A   Clear
1:25 AM 55.4 °F - 18.1 °F 23% 29.74 in 10.0 mi WNW 11.5 mph - N/A   Clear
1:45 AM 54.7 °F - 18.5 °F 24% 29.74 in 10.0 mi WNW 12.7 mph - N/A   Clear
2:05 AM 53.4 °F - 19.0 °F 26% 29.74 in 10.0 mi WNW 12.7 mph - N/A   Clear
2:25 AM 52.7 °F - 19.6 °F 27% 29.76 in 10.0 mi WNW 13.8 mph - N/A   Clear
2:45 AM 52.0 °F - 20.1 °F 29% 29.77 in 10.0 mi WNW 11.5 mph - N/A   Clear
3:25 AM 50.5 °F - 21.0 °F 31% 29.78 in 10.0 mi West 11.5 mph - N/A   Clear
3:45 AM 50.0 °F - 22.1 °F 33% 29.79 in 10.0 mi West 12.7 mph - N/A   Clear
4:05 AM 49.6 °F - 22.8 °F 35% 29.80 in 10.0 mi WNW 11.5 mph - N/A   Clear
4:25 AM 50.0 °F - 24.1 °F 36% 29.80 in 10.0 mi West 15.0 mph - N/A   Clear
4:45 AM 50.0 °F - 25.5 °F 39% 29.81 in 10.0 mi West 13.8 mph - N/A   Clear
5:05 AM 48.4 °F - 25.9 °F 42% 29.82 in 10.0 mi West 11.5 mph - N/A   Clear
5:25 AM 46.6 °F - 26.6 °F 46% 29.83 in 10.0 mi West 13.8 mph - N/A   Clear
5:45 AM 47.5 °F - 28.0 °F 47% 29.83 in 10.0 mi West 15.0 mph - N/A   Clear
6:05 AM 47.3 °F - 28.9 °F 49% 29.84 in 10.0 mi WSW 15.0 mph - N/A   Clear
6:25 AM 48.2 °F - 29.7 °F 49% 29.84 in 10.0 mi WSW 17.3 mph - N/A   Clear
6:45 AM 48.6 °F - 29.8 °F 48% 29.85 in 10.0 mi WSW 16.1 mph - N/A   Clear
7:05 AM 48.4 °F - 29.7 °F 48% 29.86 in 10.0 mi WSW 16.1 mph - N/A   Clear
7:25 AM 48.2 °F - 28.8 °F 47% 29.86 in 10.0 mi WSW 17.3 mph - N/A   Clear
7:45 AM 46.9 °F - 28.4 °F 49% 29.87 in 10.0 mi WSW 16.1 mph - N/A   Clear
8:05 AM 46.6 °F - 27.9 °F 48% 29.88 in 10.0 mi WSW 15.0 mph - N/A   Clear
8:25 AM 47.8 °F - 27.5 °F 45% 29.89 in 10.0 mi WSW 15.0 mph - N/A   Clear
8:45 AM 49.8 °F - 26.8 °F 41% 29.90 in 10.0 mi WSW 15.0 mph - N/A   Clear
9:05 AM 51.4 °F - 25.0 °F 36% 29.90 in 10.0 mi WSW 15.0 mph - N/A   Clear
9:25 AM 53.6 °F - 23.9 °F 32% 29.91 in 10.0 mi WSW 17.3 mph - N/A   Clear
9:45 AM 55.2 °F - 23.5 °F 29% 29.92 in 10.0 mi WSW 16.1 mph 20.7 mph N/A   Clear
10:05 AM 55.9 °F - 22.6 °F 28% 29.92 in 10.0 mi West 23.0 mph 31.1 mph N/A   Clear
10:25 AM 57.0 °F - 22.3 °F 26% 29.92 in 10.0 mi West 20.7 mph 24.2 mph N/A   Clear
11:05 AM 57.7 °F - 22.1 °F 25% 29.92 in 10.0 mi West 23.0 mph 35.7 mph N/A   Clear
11:25 AM 58.3 °F - 22.1 °F 25% 29.92 in 10.0 mi West 25.3 mph 31.1 mph N/A   Clear
11:45 AM 59.0 °F - 21.4 °F 23% 29.92 in 10.0 mi West 25.3 mph 33.4 mph N/A   Scattered Clouds
12:05 PM 59.0 °F - 21.2 °F 23% 29.91 in 10.0 mi West 19.6 mph 27.6 mph N/A   Scattered Clouds
12:25 PM 58.8 °F - 21.6 °F 24% 29.89 in 10.0 mi West 19.6 mph 26.5 mph N/A   Clear
12:45 PM 59.9 °F - 21.6 °F 23% 29.87 in 10.0 mi West 18.4 mph 28.8 mph N/A   Clear
1:05 PM 60.3 °F - 21.9 °F 23% 29.85 in 10.0 mi WSW 16.1 mph 26.5 mph N/A   Clear
1:45 PM 60.8 °F - 20.5 °F 21% 29.85 in 10.0 mi West 17.3 mph 21.9 mph N/A   Clear
2:05 PM 61.0 °F - 20.3 °F 21% 29.84 in 10.0 mi West 16.1 mph 25.3 mph N/A   Clear
2:25 PM 61.2 °F - 21.0 °F 21% 29.84 in 10.0 mi West 20.7 mph 31.1 mph N/A   Clear
2:45 PM 61.3 °F - 19.9 °F 20% 29.85 in 10.0 mi West 23.0 mph 34.5 mph N/A   Clear
3:05 PM 60.8 °F - 19.4 °F 20% 29.84 in 10.0 mi West 26.5 mph 34.5 mph N/A   Clear
3:25 PM 59.9 °F - 18.0 °F 20% 29.86 in 7.0 mi West 33.4 mph 39.1 mph N/A   Clear
3:45 PM 59.5 °F - 16.5 °F 19% 29.88 in 7.0 mi West 33.4 mph 41.4 mph N/A   Clear
4:05 PM 57.2 °F - 15.6 °F 20% 29.89 in 5.0 mi WNW 26.5 mph 41.4 mph N/A   Haze
4:45 PM 55.6 °F - 10.8 °F 17% 29.93 in 10.0 mi West 28.8 mph 35.7 mph N/A   Overcast
5:05 PM 55.4 °F - 6.8 °F 14% 29.95 in 10.0 mi West 26.5 mph 35.7 mph N/A   Overcast
5:25 PM 55.4 °F - 5.4 °F 13% 29.96 in 10.0 mi West 25.3 mph 38.0 mph N/A   Overcast
5:45 PM 54.5 °F - 5.0 °F 14% 29.97 in 10.0 mi West 25.3 mph 29.9 mph N/A   Overcast
6:05 PM 53.8 °F - 4.1 °F 13% 29.99 in 10.0 mi West 28.8 mph 35.7 mph N/A   Overcast
6:25 PM 53.1 °F - 5.0 °F 14% 30.01 in 10.0 mi West 23.0 mph 31.1 mph N/A   Overcast
6:45 PM 52.7 °F - 5.7 °F 15% 30.02 in 10.0 mi West 23.0 mph 28.8 mph N/A   Overcast
7:05 PM 52.3 °F - 5.0 °F 15% 30.04 in 10.0 mi West 18.4 mph - N/A   Overcast
7:25 PM 51.6 °F - 5.4 °F 15% 30.05 in 10.0 mi West 17.3 mph 21.9 mph N/A   Overcast
7:45 PM 51.3 °F - 6.6 °F 16% 30.07 in 10.0 mi West 13.8 mph 18.4 mph N/A   Overcast
8:05 PM 50.0 °F - 6.4 °F 17% 30.09 in 10.0 mi WNW 11.5 mph - N/A   Mostly Cloudy
8:25 PM 48.2 °F - 6.6 °F 18% 30.11 in 10.0 mi WNW 10.4 mph - N/A   Scattered Clouds
8:45 PM 47.3 °F - 6.4 °F 19% 30.12 in 10.0 mi West 9.2 mph - N/A   Clear
9:05 PM 44.1 °F 39.5 °F 6.1 °F 21% 30.13 in 10.0 mi West 8.1 mph - N/A   Clear
9:25 PM 41.0 °F 35.2 °F 5.9 °F 23% 30.15 in 10.0 mi West 9.2 mph - N/A   Clear
9:45 PM 41.4 °F 35.2 °F 6.8 °F 24% 30.16 in 10.0 mi West 10.4 mph - N/A   Clear
10:05 PM 39.9 °F 35.1 °F 6.8 °F 25% 30.18 in 10.0 mi West 6.9 mph - N/A   Clear
10:25 PM 37.0 °F 31.0 °F 6.3 °F 28% 30.19 in 10.0 mi West 8.1 mph - N/A   Clear
10:45 PM 35.2 °F 29.5 °F 5.9 °F 29% 30.20 in 10.0 mi West 6.9 mph - N/A   Clear
11:05 PM 36.1 °F 30.6 °F 8.4 °F 32% 30.22 in 10.0 mi WNW 6.9 mph - N/A   Clear
11:45 PM 32.0 °F - 7.0 °F 35% 30.25 in 10.0 mi Calm Calm - N/A   Clear